DAL125 KPDX-KSLC

Flight info

Callsign DAL125
Flight time 1h 30m
Altitude 37000
Route WHAMY5 IMB J15 BOI BYI SKEES6
Aircraft A320/M-SDE3FGHIRWY/LB1

Departure

Time 2026-04-30 10:23
Airport Portland International Airport (KPDX)

Arrival

Time 2026-04-30 11:53
Airport Salt Lake City International Airport (KSLC)
Time Latitude Longitude Altitude Speed Heading
2026-04-30 10:07 45.58935 -122.58900 30 ft 0 kts 209°
2026-04-30 10:15 45.58947 -122.58891 30 ft 2 kts 209°
2026-04-30 10:15 45.58961 -122.58879 31 ft 2 kts 208°
2026-04-30 10:15 45.58976 -122.58868 31 ft 2 kts 194°
2026-04-30 10:16 45.58992 -122.58868 31 ft 2 kts 151°
2026-04-30 10:16 45.59005 -122.58882 31 ft 2 kts 128°
2026-04-30 10:16 45.59011 -122.58894 31 ft 1 kts 120°
2026-04-30 10:17 45.59012 -122.58895 31 ft 0 kts 119°
2026-04-30 10:17 45.59011 -122.58893 31 ft 2 kts 119°
2026-04-30 10:17 45.58984 -122.58822 31 ft 13 kts 118°
2026-04-30 10:18 45.58954 -122.58698 31 ft 13 kts 88°
2026-04-30 10:18 45.58961 -122.58570 31 ft 14 kts 93°
2026-04-30 10:18 45.58915 -122.58428 31 ft 18 kts 119°
2026-04-30 10:19 45.58768 -122.58052 31 ft 25 kts 119°
2026-04-30 10:19 45.58679 -122.57821 32 ft 28 kts 118°
2026-04-30 10:19 45.58577 -122.57567 29 ft 30 kts 119°
2026-04-30 10:19 45.58492 -122.57347 30 ft 24 kts 119°
2026-04-30 10:20 45.58409 -122.57134 31 ft 25 kts 119°
2026-04-30 10:20 45.58278 -122.56800 31 ft 14 kts 118°
2026-04-30 10:20 45.58276 -122.56737 31 ft 0 kts 64°
2026-04-30 10:21 45.58280 -122.56728 31 ft 4 kts 59°
2026-04-30 10:21 45.58331 -122.56688 30 ft 13 kts 11°
2026-04-30 10:22 45.58384 -122.56746 30 ft 4 kts 298°
2026-04-30 10:22 45.58404 -122.56798 30 ft 21 kts 300°
2026-04-30 10:22 45.58612 -122.57331 30 ft 97 kts 299°
2026-04-30 10:22 45.59039 -122.58426 33 ft 153 kts 299°
2026-04-30 10:23 45.59582 -122.59817 520 ft 159 kts 298°
2026-04-30 10:23 45.60100 -122.61190 1237 ft 156 kts 299°
2026-04-30 10:23 45.60595 -122.62581 1903 ft 161 kts 299°
2026-04-30 10:23 45.61139 -122.64108 2237 ft 183 kts 299°
2026-04-30 10:24 45.61773 -122.65829 2591 ft 210 kts 300°
2026-04-30 10:24 45.62497 -122.67779 3075 ft 234 kts 299°
2026-04-30 10:24 45.63294 -122.69942 3584 ft 258 kts 298°
2026-04-30 10:24 45.64151 -122.72274 4316 ft 270 kts 298°
2026-04-30 10:25 45.64895 -122.74762 5205 ft 276 kts 282°
2026-04-30 10:25 45.64931 -122.77483 6094 ft 279 kts 256°
2026-04-30 10:25 45.64135 -122.80006 7030 ft 281 kts 231°
2026-04-30 10:25 45.62661 -122.81828 7915 ft 283 kts 211°
2026-04-30 10:26 45.60977 -122.83320 8795 ft 286 kts 211°
2026-04-30 10:26 45.59266 -122.84818 9684 ft 291 kts 210°
2026-04-30 10:26 45.57383 -122.85897 10471 ft 296 kts 189°
2026-04-30 10:26 45.55319 -122.85846 11130 ft 305 kts 167°
2026-04-30 10:27 45.53342 -122.84558 11402 ft 325 kts 140°
2026-04-30 10:27 45.51905 -122.82025 11896 ft 336 kts 115°
2026-04-30 10:27 45.50943 -122.78952 12594 ft 342 kts 112°
2026-04-30 10:27 45.49984 -122.75827 13345 ft 347 kts 112°
2026-04-30 10:28 45.49007 -122.72653 14057 ft 353 kts 112°
2026-04-30 10:28 45.48012 -122.69429 14697 ft 358 kts 111°
2026-04-30 10:28 45.47001 -122.66168 15334 ft 363 kts 111°
2026-04-30 10:28 45.45967 -122.62856 15971 ft 368 kts 112°
2026-04-30 10:29 45.44919 -122.59515 16611 ft 373 kts 111°
2026-04-30 10:29 45.43853 -122.56124 17231 ft 377 kts 111°
2026-04-30 10:29 45.42773 -122.52689 17857 ft 382 kts 111°
2026-04-30 10:29 45.41681 -122.49213 18468 ft 387 kts 111°
2026-04-30 10:30 45.40576 -122.45699 19006 ft 391 kts 111°
2026-04-30 10:30 45.39461 -122.42150 19568 ft 395 kts 111°
2026-04-30 10:30 45.38332 -122.38557 20122 ft 399 kts 111°
2026-04-30 10:30 45.37196 -122.34937 20682 ft 403 kts 111°
2026-04-30 10:31 45.36049 -122.31282 21229 ft 407 kts 111°
2026-04-30 10:31 45.34888 -122.27594 21798 ft 411 kts 111°
2026-04-30 10:31 45.33714 -122.23874 22341 ft 414 kts 111°
2026-04-30 10:31 45.32538 -122.20163 22889 ft 418 kts 111°
2026-04-30 10:32 45.31335 -122.16376 23423 ft 422 kts 111°
2026-04-30 10:32 45.30116 -122.12557 23940 ft 426 kts 111°
2026-04-30 10:32 45.28884 -122.08706 24375 ft 430 kts 111°
2026-04-30 10:32 45.27643 -122.04825 24833 ft 433 kts 110°
2026-04-30 10:33 45.26397 -122.00919 25253 ft 436 kts 110°
2026-04-30 10:33 45.25150 -121.96981 25673 ft 438 kts 109°
2026-04-30 10:33 45.24001 -121.92969 26076 ft 440 kts 107°
2026-04-30 10:33 45.22945 -121.88872 26496 ft 442 kts 105°
2026-04-30 10:34 45.21940 -121.84732 26901 ft 445 kts 104°
2026-04-30 10:34 45.20945 -121.80563 27305 ft 448 kts 104°
2026-04-30 10:34 45.19928 -121.76364 27699 ft 451 kts 104°
2026-04-30 10:34 45.18879 -121.72156 28077 ft 455 kts 105°
2026-04-30 10:35 45.17798 -121.67935 28441 ft 458 kts 105°
2026-04-30 10:35 45.16694 -121.63688 28800 ft 461 kts 105°
2026-04-30 10:35 45.15575 -121.59416 29157 ft 464 kts 105°
2026-04-30 10:35 45.14450 -121.55122 29501 ft 466 kts 105°
2026-04-30 10:36 45.13320 -121.50799 29851 ft 469 kts 105°
2026-04-30 10:36 45.12185 -121.46451 30185 ft 472 kts 105°
2026-04-30 10:36 45.11047 -121.42085 30472 ft 475 kts 105°
2026-04-30 10:36 45.09900 -121.37685 30746 ft 478 kts 105°
2026-04-30 10:37 45.08746 -121.33260 30996 ft 481 kts 105°
2026-04-30 10:37 45.07581 -121.28811 31259 ft 484 kts 105°
2026-04-30 10:37 45.06407 -121.24343 31504 ft 486 kts 105°
2026-04-30 10:37 45.05226 -121.19859 31759 ft 489 kts 105°
2026-04-30 10:38 45.04036 -121.15348 32093 ft 489 kts 104°
2026-04-30 10:38 45.02860 -121.10901 32443 ft 489 kts 104°
2026-04-30 10:38 45.01669 -121.06404 32799 ft 489 kts 104°
2026-04-30 10:38 45.00478 -121.01908 33131 ft 489 kts 104°
2026-04-30 10:39 44.99284 -120.97404 33479 ft 489 kts 104°
2026-04-30 10:39 44.98089 -120.92902 33822 ft 489 kts 104°
2026-04-30 10:39 44.96892 -120.88408 34163 ft 489 kts 103°
2026-04-30 10:39 44.95692 -120.83917 34476 ft 489 kts 104°
2026-04-30 10:40 44.94490 -120.79425 34773 ft 488 kts 104°
2026-04-30 10:40 44.93286 -120.74938 35073 ft 488 kts 104°
2026-04-30 10:40 44.92085 -120.70467 35337 ft 487 kts 104°
2026-04-30 10:40 44.90888 -120.66003 35612 ft 487 kts 104°
2026-04-30 10:41 44.89685 -120.61535 35883 ft 486 kts 104°
2026-04-30 10:41 44.88483 -120.57081 36150 ft 486 kts 105°
2026-04-30 10:41 44.87277 -120.52630 36403 ft 485 kts 105°
2026-04-30 10:41 44.86073 -120.48194 36645 ft 485 kts 105°
2026-04-30 10:42 44.84862 -120.43743 36897 ft 485 kts 105°
2026-04-30 10:42 44.83656 -120.39321 37133 ft 484 kts 105°
2026-04-30 10:42 44.81247 -120.30492 37225 ft 481 kts 105°
2026-04-30 10:43 44.78851 -120.21720 37232 ft 479 kts 106°
2026-04-30 10:43 44.76454 -120.12985 37234 ft 478 kts 106°
2026-04-30 10:44 44.74053 -120.04271 37236 ft 477 kts 106°
2026-04-30 10:44 44.71640 -119.95578 37242 ft 477 kts 106°
2026-04-30 10:45 44.69228 -119.86884 37255 ft 477 kts 106°
2026-04-30 10:45 44.66821 -119.78258 37265 ft 477 kts 107°
2026-04-30 10:46 44.64393 -119.69577 37279 ft 477 kts 107°
2026-04-30 10:46 44.61904 -119.60939 37286 ft 477 kts 108°
2026-04-30 10:47 44.59366 -119.52327 37261 ft 481 kts 108°
2026-04-30 10:47 44.56786 -119.43578 37264 ft 490 kts 108°
2026-04-30 10:48 44.54163 -119.34676 37263 ft 497 kts 109°
2026-04-30 10:48 44.51506 -119.25673 37258 ft 502 kts 109°
2026-04-30 10:49 44.48824 -119.16600 37262 ft 505 kts 109°
2026-04-30 10:49 44.46122 -119.07500 37255 ft 507 kts 109°
2026-04-30 10:50 44.43400 -118.98387 37249 ft 507 kts 109°
2026-04-30 10:50 44.40672 -118.89298 37245 ft 506 kts 109°
2026-04-30 10:51 44.37942 -118.80221 37244 ft 506 kts 110°
2026-04-30 10:51 44.35213 -118.71153 37237 ft 506 kts 110°
2026-04-30 10:52 44.32495 -118.62176 37241 ft 505 kts 110°
2026-04-30 10:52 44.29754 -118.53146 37228 ft 505 kts 110°
2026-04-30 10:53 44.27002 -118.44133 37227 ft 505 kts 110°
2026-04-30 10:53 44.24249 -118.35134 37233 ft 505 kts 110°
2026-04-30 10:54 44.21481 -118.26122 37251 ft 505 kts 111°
2026-04-30 10:54 44.18713 -118.17127 37260 ft 505 kts 111°
2026-04-30 10:55 44.15939 -118.08144 37275 ft 505 kts 111°
2026-04-30 10:55 44.13159 -117.99165 37276 ft 505 kts 111°
2026-04-30 10:56 44.10374 -117.90201 37281 ft 504 kts 111°
2026-04-30 10:56 44.07595 -117.81321 37274 ft 504 kts 112°
2026-04-30 10:57 44.04792 -117.72397 37231 ft 502 kts 112°
2026-04-30 10:57 44.02006 -117.63527 37227 ft 501 kts 112°
2026-04-30 10:58 43.99213 -117.54661 37226 ft 500 kts 112°
2026-04-30 10:58 43.96408 -117.45809 37224 ft 499 kts 112°
2026-04-30 10:59 43.93610 -117.36996 37225 ft 499 kts 112°
2026-04-30 10:59 43.90800 -117.28189 37217 ft 499 kts 112°
2026-04-30 11:00 43.88005 -117.19450 37091 ft 499 kts 107°
2026-04-30 11:00 43.86600 -117.15055 37215 ft 499 kts 113°
2026-04-30 11:00 43.85193 -117.10663 37221 ft 498 kts 113°
2026-04-30 11:01 43.82372 -117.01894 37218 ft 499 kts 113°
2026-04-30 11:01 43.79532 -116.93130 37208 ft 499 kts 113°
2026-04-30 11:02 43.76691 -116.84381 37215 ft 499 kts 113°
2026-04-30 11:02 43.73842 -116.75615 37221 ft 500 kts 114°
2026-04-30 11:03 43.72148 -116.70408 37235 ft 500 kts 110°
2026-04-30 11:04 43.70439 -116.65129 37217 ft 504 kts 110°
2026-04-30 11:05 43.67537 -116.56249 37221 ft 509 kts 110°
2026-04-30 11:05 43.64590 -116.47334 37223 ft 512 kts 111°
2026-04-30 11:06 43.61632 -116.38379 37219 ft 513 kts 111°
2026-04-30 11:06 43.58696 -116.29493 37210 ft 512 kts 111°
2026-04-30 11:07 43.55737 -116.20566 37209 ft 511 kts 111°
2026-04-30 11:07 43.52526 -116.11787 37224 ft 514 kts 116°
2026-04-30 11:08 43.48973 -116.03238 37226 ft 515 kts 117°
2026-04-30 11:08 43.45374 -115.94716 37221 ft 515 kts 117°
2026-04-30 11:09 43.41869 -115.86138 37214 ft 514 kts 116°
2026-04-30 11:09 43.39000 -115.78986 37201 ft 514 kts 116°
2026-04-30 11:10 43.34944 -115.68955 37209 ft 513 kts 116°
2026-04-30 11:10 43.32028 -115.61839 37199 ft 513 kts 117°
2026-04-30 11:11 43.28522 -115.53318 37195 ft 512 kts 117°
2026-04-30 11:11 43.25020 -115.44809 37192 ft 511 kts 117°
2026-04-30 11:12 43.21517 -115.36321 37193 ft 510 kts 117°
2026-04-30 11:12 43.18017 -115.27870 37189 ft 510 kts 117°
2026-04-30 11:13 43.14511 -115.19421 37187 ft 509 kts 117°
2026-04-30 11:13 43.11012 -115.11002 37202 ft 509 kts 117°
2026-04-30 11:14 43.07495 -115.02577 37224 ft 509 kts 117°
2026-04-30 11:14 43.03974 -114.94179 37249 ft 509 kts 118°
2026-04-30 11:15 43.00461 -114.85822 37270 ft 509 kts 118°
2026-04-30 11:15 42.96937 -114.77428 37274 ft 509 kts 118°
2026-04-30 11:16 42.93410 -114.69072 37245 ft 507 kts 118°
2026-04-30 11:16 42.89867 -114.60737 37239 ft 507 kts 118°
2026-04-30 11:17 42.86332 -114.52417 37222 ft 507 kts 118°
2026-04-30 11:17 42.82794 -114.44113 37233 ft 507 kts 118°
2026-04-30 11:18 42.79242 -114.35810 37234 ft 507 kts 118°
2026-04-30 11:18 42.73945 -114.23432 37228 ft 507 kts 118°
2026-04-30 11:19 42.70388 -114.15145 37206 ft 507 kts 118°
2026-04-30 11:19 42.66826 -114.06884 37199 ft 507 kts 119°
2026-04-30 11:20 42.63249 -113.98638 37213 ft 507 kts 119°
2026-04-30 11:20 42.59701 -113.90460 37229 ft 507 kts 119°
2026-04-30 11:21 42.55339 -113.82965 37229 ft 508 kts 135°
2026-04-30 11:21 42.50299 -113.76233 37234 ft 509 kts 135°
2026-04-30 11:22 42.45298 -113.69540 37231 ft 509 kts 135°
2026-04-30 11:22 42.42791 -113.66183 37058 ft 503 kts 135°
2026-04-30 11:22 42.40335 -113.62902 36790 ft 490 kts 135°
2026-04-30 11:23 42.37938 -113.59701 36525 ft 479 kts 135°
2026-04-30 11:23 42.35577 -113.56554 36271 ft 474 kts 135°
2026-04-30 11:23 42.30915 -113.50362 35766 ft 466 kts 135°
2026-04-30 11:24 42.28612 -113.47308 35514 ft 463 kts 135°
2026-04-30 11:24 42.26315 -113.44264 35267 ft 460 kts 135°
2026-04-30 11:24 42.24040 -113.41249 35022 ft 457 kts 135°
2026-04-30 11:25 42.19537 -113.35294 34268 ft 450 kts 135°
2026-04-30 11:25 42.17305 -113.32349 33699 ft 448 kts 135°
2026-04-30 11:25 42.12894 -113.26532 32705 ft 440 kts 135°
2026-04-30 11:26 42.08585 -113.20848 31732 ft 433 kts 135°
2026-04-30 11:26 42.06431 -113.18022 31255 ft 431 kts 135°
2026-04-30 11:26 42.04291 -113.15224 30789 ft 428 kts 135°
2026-04-30 11:27 42.02164 -113.12446 30328 ft 425 kts 135°
2026-04-30 11:27 42.00050 -113.09680 29830 ft 422 kts 135°
2026-04-30 11:27 41.97959 -113.06944 29398 ft 417 kts 135°
2026-04-30 11:27 41.95890 -113.04236 28960 ft 413 kts 135°
2026-04-30 11:28 41.91820 -112.98916 28126 ft 404 kts 135°
2026-04-30 11:28 41.89814 -112.96300 27708 ft 400 kts 135°
2026-04-30 11:28 41.87828 -112.93710 27286 ft 397 kts 135°
2026-04-30 11:29 41.85856 -112.91142 26860 ft 393 kts 135°
2026-04-30 11:29 41.83902 -112.88601 26425 ft 390 kts 135°
2026-04-30 11:29 41.80025 -112.83570 25541 ft 386 kts 135°
2026-04-30 11:30 41.76181 -112.78591 24618 ft 383 kts 134°
2026-04-30 11:30 41.74272 -112.76121 24158 ft 381 kts 134°
2026-04-30 11:30 41.72369 -112.73662 23678 ft 380 kts 134°
2026-04-30 11:31 41.70468 -112.71211 23165 ft 378 kts 135°
2026-04-30 11:31 41.68586 -112.68783 22709 ft 375 kts 135°
2026-04-30 11:31 41.66741 -112.66403 22270 ft 372 kts 135°
2026-04-30 11:31 41.64858 -112.63977 21820 ft 369 kts 135°
2026-04-30 11:32 41.63038 -112.61634 21388 ft 367 kts 135°
2026-04-30 11:32 41.61204 -112.59274 20955 ft 365 kts 135°
2026-04-30 11:32 41.59382 -112.56932 20524 ft 363 kts 135°
2026-04-30 11:33 41.55767 -112.52290 19676 ft 360 kts 135°
2026-04-30 11:33 41.53964 -112.49980 19257 ft 358 kts 135°
2026-04-30 11:33 41.52157 -112.47697 18843 ft 357 kts 137°
2026-04-30 11:33 41.50315 -112.45487 18412 ft 356 kts 138°
2026-04-30 11:34 41.48449 -112.43325 17963 ft 354 kts 139°
2026-04-30 11:34 41.46589 -112.41199 17494 ft 352 kts 139°
2026-04-30 11:34 41.44690 -112.39112 16973 ft 353 kts 145°
2026-04-30 11:34 41.42564 -112.37504 16575 ft 350 kts 154°
2026-04-30 11:35 41.40381 -112.36095 16169 ft 347 kts 154°
2026-04-30 11:35 41.38245 -112.34704 15779 ft 345 kts 154°
2026-04-30 11:35 41.36095 -112.33300 15376 ft 343 kts 154°
2026-04-30 11:35 41.33962 -112.31906 14984 ft 340 kts 154°
2026-04-30 11:36 41.31845 -112.30518 14597 ft 338 kts 153°
2026-04-30 11:36 41.29738 -112.29136 14209 ft 336 kts 153°
2026-04-30 11:36 41.27643 -112.27766 13810 ft 334 kts 153°
2026-04-30 11:36 41.25564 -112.26412 13405 ft 332 kts 154°
2026-04-30 11:37 41.23500 -112.25071 13023 ft 329 kts 153°
2026-04-30 11:37 41.21467 -112.23748 12821 ft 319 kts 153°
2026-04-30 11:37 41.19500 -112.22467 12744 ft 312 kts 153°
2026-04-30 11:37 41.17558 -112.21198 12623 ft 311 kts 153°
2026-04-30 11:38 41.15619 -112.19928 12503 ft 310 kts 153°
2026-04-30 11:38 41.13688 -112.18671 12385 ft 309 kts 154°
2026-04-30 11:38 41.11754 -112.17419 12260 ft 309 kts 154°
2026-04-30 11:38 41.09818 -112.16171 12140 ft 309 kts 154°
2026-04-30 11:39 41.07864 -112.14989 12027 ft 308 kts 160°
2026-04-30 11:39 41.05791 -112.14316 11904 ft 308 kts 171°
2026-04-30 11:39 41.03773 -112.13885 11786 ft 307 kts 171°
2026-04-30 11:39 41.02967 -112.13713 11738 ft 307 kts 171°
2026-04-30 11:40 41.00876 -112.13268 11612 ft 307 kts 171°
2026-04-30 11:40 40.98774 -112.12816 11485 ft 306 kts 171°
2026-04-30 11:40 40.97018 -112.12437 11384 ft 306 kts 171°
2026-04-30 11:42 40.95300 -112.12068 11272 ft 305 kts 171°
2026-04-30 11:42 40.93203 -112.11619 11162 ft 305 kts 171°
2026-04-30 11:42 40.91113 -112.11169 11029 ft 304 kts 171°
2026-04-30 11:42 40.89019 -112.10761 10991 ft 304 kts 173°
2026-04-30 11:43 40.86916 -112.10466 11000 ft 304 kts 175°
2026-04-30 11:43 40.84809 -112.10231 11002 ft 304 kts 176°
2026-04-30 11:43 40.82698 -112.10015 11008 ft 304 kts 176°
2026-04-30 11:43 40.80585 -112.09795 11008 ft 304 kts 175°
2026-04-30 11:44 40.78502 -112.09568 11010 ft 304 kts 175°
2026-04-30 11:44 40.76388 -112.09329 11010 ft 304 kts 175°
2026-04-30 11:44 40.74279 -112.09087 11007 ft 304 kts 175°
2026-04-30 11:44 40.72168 -112.08843 11005 ft 304 kts 175°
2026-04-30 11:45 40.70059 -112.08599 11015 ft 305 kts 175°
2026-04-30 11:45 40.67949 -112.08349 10752 ft 305 kts 175°
2026-04-30 11:45 40.65853 -112.08095 10413 ft 296 kts 174°
2026-04-30 11:45 40.63854 -112.07851 10136 ft 281 kts 174°
2026-04-30 11:46 40.61954 -112.07619 9874 ft 267 kts 174°
2026-04-30 11:46 40.60132 -112.07397 9686 ft 259 kts 174°
2026-04-30 11:46 40.58360 -112.07183 9628 ft 254 kts 174°
2026-04-30 11:46 40.56604 -112.06967 9569 ft 253 kts 174°
2026-04-30 11:47 40.54898 -112.06470 9487 ft 252 kts 154°
2026-04-30 11:47 40.53522 -112.05124 9310 ft 246 kts 127°
2026-04-30 11:47 40.52737 -112.03166 9252 ft 242 kts 101°
2026-04-30 11:47 40.52617 -112.00980 9203 ft 240 kts 85°
2026-04-30 11:48 40.52688 -111.98792 9090 ft 240 kts 85°
2026-04-30 11:48 40.52959 -111.96661 8999 ft 234 kts 61°
2026-04-30 11:48 40.54029 -111.95124 8880 ft 229 kts 26°
2026-04-30 11:48 40.55559 -111.94750 8588 ft 225 kts 357°
2026-04-30 11:49 40.57112 -111.94928 8287 ft 224 kts 354°
2026-04-30 11:49 40.58658 -111.95132 7991 ft 223 kts 355°
2026-04-30 11:49 40.60201 -111.95316 7700 ft 222 kts 355°
2026-04-30 11:49 40.61737 -111.95494 7405 ft 222 kts 355°
2026-04-30 11:50 40.63274 -111.95671 7120 ft 221 kts 355°
2026-04-30 11:50 40.64803 -111.95847 6820 ft 220 kts 355°
2026-04-30 11:50 40.66293 -111.96019 6549 ft 207 kts 354°
2026-04-30 11:50 40.67685 -111.96180 6247 ft 194 kts 354°
2026-04-30 11:51 40.68950 -111.96326 6003 ft 175 kts 354°
2026-04-30 11:51 40.70105 -111.96459 5775 ft 159 kts 354°
2026-04-30 11:51 40.71173 -111.96583 5564 ft 151 kts 354°
2026-04-30 11:51 40.72202 -111.96702 5374 ft 147 kts 354°
2026-04-30 11:52 40.73125 -111.96811 5188 ft 146 kts 355°
2026-04-30 11:52 40.74127 -111.96931 4954 ft 144 kts 354°
2026-04-30 11:52 40.75125 -111.97042 4758 ft 143 kts 353°
2026-04-30 11:52 40.76118 -111.97159 4552 ft 143 kts 354°
2026-04-30 11:53 40.77103 -111.97271 4358 ft 142 kts 353°
2026-04-30 11:53 40.78050 -111.97378 4238 ft 131 kts 353°
2026-04-30 11:53 40.78827 -111.97472 4237 ft 85 kts 355°
2026-04-30 11:53 40.79251 -111.97521 4235 ft 45 kts 355°
2026-04-30 11:54 40.79511 -111.97630 4233 ft 22 kts 325°
2026-04-30 11:54 40.79547 -111.97729 4234 ft 9 kts 266°
2026-04-30 11:54 40.79507 -111.97776 4233 ft 8 kts 172°
2026-04-30 11:54 40.79459 -111.97764 4234 ft 6 kts 171°
2026-04-30 11:55 40.79421 -111.97757 4234 ft 7 kts 173°
2026-04-30 11:55 40.79338 -111.97749 4235 ft 17 kts 175°
2026-04-30 11:55 40.79217 -111.97735 4235 ft 18 kts 175°
2026-04-30 11:55 40.79092 -111.97720 4235 ft 17 kts 175°
2026-04-30 11:56 40.78991 -111.97709 4235 ft 14 kts 175°
2026-04-30 11:56 40.78895 -111.97697 4235 ft 13 kts 174°
2026-04-30 11:56 40.78834 -111.97711 4234 ft 7 kts 225°
2026-04-30 11:56 40.78821 -111.97762 4235 ft 5 kts 265°
2026-04-30 11:57 40.78819 -111.97801 4235 ft 4 kts 265°
2026-04-30 11:57 40.78818 -111.97805 4235 ft 1 kts 265°
2026-04-30 11:57 40.78788 -111.97843 4234 ft 13 kts 181°
2026-04-30 11:57 40.78704 -111.97839 4235 ft 9 kts 192°
2026-04-30 11:58 40.78660 -111.97863 4235 ft 4 kts 204°
2026-04-30 11:58 40.78654 -111.97868 4235 ft 0 kts 204°